Home   Weather   Perg   Past weeks

Flag for Austria Past Weather in Perg, Upper Austria, Austria — Yesterday and Last 2 Weeks

Now
29 °F

Chilly.


Feels Like: 29 °F
Forecast: 19 / 41 °F
Wind: 2 mph from West

Location: Amstetten

Current Time: Dec 7, 2016 at 11:26:19 pm

Latest Report: Dec 7, 2016 at 10:00 pm


Visibility: N/A

Pressure: 30.67 "Hg

Humidity: 96%

Dew Point: 29 °F

Location of PergLocation

Past Weather in Perg — Graph

°F

Perg Temperature Yesterday

Maximum temperature yesterday: 32 °F (at 4:00 pm)
Minimum temperature yesterday: 28 °F (at 1:00 am)
Average temperature yesterday: 30 °F

High & Low Weather Summary for the Past Weeks

 TemperatureHumidityPressure
High47 °F (Nov 22, 10:00 pm)100% (Nov 22, 10:00 pm)30.70 "Hg (Nov 22, 10:00 pm)
Low20 °F (Nov 30, 8:00 am)49% (Nov 28, 11:00 am)29.97 "Hg (Dec 2, 8:00 am)
Average36 °F89%30.30 "Hg
* Reported Nov 22 10:00 pm — Dec 7 10:00 pm, Perg, Weather by CustomWeather, © 2016

Note: Actual official high and low records may vary slightly from our data, if they occured in-between our weather recording intervals... More about our weather records

Advertising

Perg Weather History for the Previous 24 Hours

Scroll right to see more
 ConditionsComfort  
Time TempWeatherWind HumidityBarometerVisibility
10:00 pm
Wed, Dec 7
29 °FChilly.2 mph96%30.67 "HgN/A
9:00 pm29 °FChilly.2 mph98%30.66 "HgN/A
8:00 pm29 °FChilly.1 mph99%30.66 "HgN/A
7:00 pm29 °FChilly.1 mph97%30.66 "HgN/A
6:00 pm29 °FChilly.1 mph97%30.66 "HgN/A
5:00 pm29 °FChilly.2 mph96%30.66 "HgN/A
4:00 pm30 °FChilly.1 mph94%30.65 "HgN/A
3:00 pm30 °FChilly.2 mph93%30.65 "HgN/A
2:00 pm30 °FChilly.2 mph93%30.65 "HgN/A
1:00 pm30 °FChilly.2 mph95%30.66 "HgN/A
12:00 pm30 °FChilly.2 mph95%30.68 "HgN/A
11:00 am29 °FChilly.1 mph96%30.69 "HgN/A
10:00 am28 °FChilly.2 mph100%30.70 "HgN/A
7:00 am28 °FOvercast.1 mph97%30.68 "HgN/A
6:00 am28 °FChilly.1 mph97%30.68 "HgN/A
5:00 am29 °FChilly.1 mph96%30.67 "HgN/A
4:00 am29 °FChilly.1 mph95%30.65 "HgN/A
3:00 am29 °FChilly.1 mph94%30.64 "HgN/A
1:00 am29 °FChilly.2 mph91%30.63 "HgN/A
12:00 am30 °FChilly.1 mph90%30.63 "HgN/A
11:00 pm
Tue, Dec 6
30 °FChilly.1 mph88%30.62 "HgN/A
Weather by CustomWeather, © 2016

See weather overviewHow to use our weather pages